HB9KNR Weather Reports


Display with metric or nautical units.
time (UTC)temp
F
wind
direction
speed
MPH
gust
MPH
rain 1hr
in
rain 24hr
in
rain mn
in
humidity
%
barometer
mb
20220707020017 62 0.0 0.0 0.00 0.00 0.00 64 1023.4
20220707015016 62 0.0 0.0 0.00 0.00 0.00 64 1023.5
20220707014021 62 0.0 0.0 0.00 0.00 0.00 63 1023.6
20220707013022 62 0.0 0.0 0.00 0.00 0.00 62 1023.6
20220707012021 62 0.0 1.0 0.00 0.00 0.00 62 1023.5
20220707011023 63 0.0 4.0 0.00 0.00 0.00 61 1023.5
20220707010021 63 0.0 3.0 0.00 0.00 0.00 61 1023.7
20220707005016 63 0.0 1.0 0.00 0.00 0.00 62 1023.7
20220707004018 63 0.0 2.0 0.00 0.00 0.00 62 1023.6
20220707003023 62 0.0 2.0 0.00 0.00 0.00 61 1023.6
20220707002021 62 23 1.0 3.0 0.00 0.00 0.00 62 1023.5
20220707001023 62 0.0 2.0 0.00 0.00 0.00 63 1023.6
20220707000023 62 0.0 1.0 0.00 0.00 0.00 65 1023.7
20220706235021 62 0.0 0.0 0.00 0.00 0.00 66 1023.7
20220706234016 62 0.0 0.0 0.00 0.00 0.00 67 1023.6
20220706233016 62 0.0 0.0 0.00 0.00 0.00 67 1023.7
20220706232024 62 0.0 0.0 0.00 0.00 0.00 67 1023.7
20220706231024 62 0.0 0.0 0.00 0.00 0.00 67 1023.8
20220706230021 63 0.0 0.0 0.00 0.00 0.00 67 1023.8
20220706225023 63 0.0 0.0 0.00 0.00 0.00 65 1023.7
20220706224022 64 0.0 0.0 0.00 0.00 0.00 64 1023.8
20220706223016 64 0.0 0.0 0.00 0.00 0.00 62 1023.9
20220706222021 65 0.0 0.0 0.00 0.00 0.00 61 1023.8
20220706221021 65 0.0 1.0 0.00 0.00 0.00 58 1023.8
20220706220021 66 0.0 0.0 0.00 0.00 0.00 57 1023.8
20220706215022 66 0.0 1.0 0.00 0.00 0.00 58 1023.9
20220706214022 66 0.0 0.0 0.00 0.00 0.00 58 1023.7
20220706213022 67 0.0 0.0 0.00 0.00 0.00 58 1023.6
20220706212020 67 0.0 0.0 0.00 0.00 0.00 57 1023.6
20220706211025 67 0.0 3.0 0.00 0.00 0.00 57 1023.6
20220706210019 67 0.0 4.0 0.00 0.00 0.00 58 1023.6
20220706205022 68 23 1.0 5.0 0.00 0.00 0.00 59 1023.6
20220706204022 68 0 1.0 5.0 0.00 0.00 0.00 60 1023.6
20220706203022 69 23 1.0 4.0 0.00 0.00 0.00 62 1023.4
20220706202022 69 23 1.0 3.0 0.00 0.00 0.00 62 1023.2
20220706201022 70 23 2.0 5.0 0.00 0.00 0.00 61 1023.1
20220706200022 70 0.0 3.0 0.00 0.00 0.00 60 1023.0
20220706195017 70 23 1.0 4.0 0.00 0.00 0.00 60 1022.7
20220706194023 71 23 2.0 6.0 0.00 0.00 0.00 59 1022.7
20220706193022 71 0 1.0 4.0 0.00 0.00 0.00 58 1022.7
20220706192022 71 0 2.0 6.0 0.00 0.00 0.00 58 1022.4
20220706191022 71 0.0 2.0 0.00 0.00 0.00 58 1022.2
20220706190023 71 0 1.0 5.0 0.00 0.00 0.00 57 1022.0
20220706185017 72 0 2.0 8.0 0.00 0.00 0.00 57 1022.0
20220706184016 72 0 2.0 6.0 0.00 0.00 0.00 57 1021.9
20220706183022 72 0 1.0 3.0 0.00 0.00 0.00 55 1021.7
20220706182024 73 0 2.0 7.0 0.00 0.00 0.00 54 1021.7
20220706181022 73 338 1.0 5.0 0.00 0.00 0.00 53 1021.6
20220706180022 74 0.0 3.0 0.00 0.00 0.00 52 1021.4
20220706175024 74 0.0 2.0 0.00 0.00 0.00 53 1021.4
20220706174017 74 0.0 2.0 0.00 0.00 0.00 54 1021.4
20220706173017 75 338 1.0 3.0 0.00 0.00 0.00 53 1021.3
20220706172022 75 338 1.0 5.0 0.00 0.00 0.00 51 1021.2
20220706171023 76 338 2.0 5.0 0.00 0.00 0.00 49 1021.1
20220706170022 76 338 3.0 7.0 0.00 0.00 0.00 48 1020.9
20220706165022 77 0 2.0 5.0 0.00 0.00 0.00 49 1020.7
20220706164022 77 0 1.0 4.0 0.00 0.00 0.00 51 1020.8
20220706163017 78 0 1.0 4.0 0.00 0.00 0.00 48 1020.8
20220706162021 78 0 1.0 5.0 0.00 0.00 0.00 48 1020.8
20220706161022 77 0 2.0 6.0 0.00 0.00 0.00 47 1020.9
20220706160023 78 0 2.0 5.0 0.00 0.00 0.00 48 1020.9
20220706155023 77 0 1.0 4.0 0.00 0.00 0.00 50 1021.0
20220706154020 78 0 1.0 4.0 0.00 0.00 0.00 46 1021.1
20220706153023 78 0 1.0 4.0 0.00 0.00 0.00 46 1021.1
20220706152016 78 23 1.0 6.0 0.00 0.00 0.00 48 1021.1
20220706151023 77 23 1.0 7.0 0.00 0.00 0.00 47 1021.3
20220706150023 78 23 1.0 5.0 0.00 0.00 0.00 48 1021.4
20220706145022 76 23 1.0 5.0 0.00 0.00 0.00 50 1021.5
20220706144021 76 0 2.0 5.0 0.00 0.00 0.00 47 1021.5
20220706143022 76 0 1.0 5.0 0.00 0.00 0.00 51 1021.7
20220706142022 76 0 1.0 5.0 0.00 0.00 0.00 49 1021.8
20220706141018 76 23 1.0 5.0 0.00 0.00 0.00 47 1021.8
20220706140021 78 23 2.0 5.0 0.00 0.00 0.00 47 1022.0
20220706135022 77 0 1.0 5.0 0.00 0.00 0.00 47 1022.1
20220706134021 78 0.0 3.0 0.00 0.00 0.00 45 1022.0
20220706133022 77 23 1.0 6.0 0.00 0.00 0.00 49 1022.1
20220706132023 77 23 1.0 6.0 0.00 0.00 0.00 46 1022.3
20220706131017 77 23 1.0 7.0 0.00 0.00 0.00 49 1022.3
20220706130016 76 0.0 4.0 0.00 0.00 0.00 48 1022.4
20220706125022 76 0.0 0.0 0.00 0.00 0.00 51 1022.6
20220706124022 76 0.0 1.0 0.00 0.00 0.00 47 1022.6
20220706123022 76 0.0 0.0 0.00 0.00 0.00 48 1022.6
20220706122021 75 0.0 0.0 0.00 0.00 0.00 48 1022.6
20220706121023 75 0.0 0.0 0.00 0.00 0.00 51 1022.7
20220706120016 75 0.0 0.0 0.00 0.00 0.00 47 1022.9
20220706115016 75 0.0 0.0 0.00 0.00 0.00 50 1022.9
20220706114021 75 0.0 0.0 0.00 0.00 0.00 48 1022.9
20220706113021 74 0.0 0.0 0.00 0.00 0.00 48 1023.2
20220706112021 74 0.0 0.0 0.00 0.00 0.00 49 1023.3
20220706111023 74 0.0 0.0 0.00 0.00 0.00 48 1023.4
20220706110021 74 0.0 0.0 0.00 0.00 0.00 51 1023.5
20220706105016 73 0.0 0.0 0.00 0.00 0.00 51 1023.5
20220706104022 73 0.0 0.0 0.00 0.00 0.00 51 1023.6
20220706103021 73 0.0 0.0 0.00 0.00 0.00 48 1023.7
20220706102023 72 0.0 0.0 0.00 0.00 0.00 53 1023.8
20220706101021 72 0.0 0.0 0.00 0.00 0.00 54 1023.8
20220706100019 72 0.0 0.0 0.00 0.00 0.00 55 1023.8
20220706095021 71 0.0 0.0 0.00 0.00 0.00 62 1023.8
20220706094016 71 0.0 0.0 0.00 0.00 0.00 61 1023.7
20220706093021 70 0.0 0.0 0.00 0.00 0.00 63 1023.6
20220706092023 70 0.0 0.0 0.00 0.00 0.00 62 1023.5
20220706091023 70 0.0 0.0 0.00 0.00 0.00 64 1023.5
20220706090021 69 0.0 0.0 0.00 0.00 0.00 65 1023.4
20220706085023 69 0.0 0.0 0.00 0.00 0.00 68 1023.4
20220706084023 68 0.0 0.0 0.00 0.00 0.00 66 1023.3
20220706083016 68 0.0 0.0 0.00 0.00 0.00 64 1023.2
20220706082021 68 0.0 0.0 0.00 0.00 0.00 68 1023.3
20220706081021 67 0.0 0.0 0.00 0.00 0.00 65 1023.2
20220706080021 67 0.0 0.0 0.00 0.00 0.00 64 1023.2
20220706075021 67 0.0 0.0 0.00 0.00 0.00 65 1023.3
20220706074021 67 0.0 0.0 0.00 0.00 0.00 65 1023.3
20220706073021 67 0.0 0.0 0.00 0.00 0.00 67 1023.2
20220706072016 67 0.0 0.0 0.00 0.00 0.00 66 1023.3
20220706071021 66 0.0 0.0 0.00 0.00 0.00 67 1023.4
20220706070023 66 0.0 0.0 0.00 0.00 0.00 64 1023.5
20220706065021 66 0.0 0.0 0.00 0.00 0.00 67 1023.5
20220706064021 66 0.0 0.0 0.00 0.01 0.00 66 1023.5
20220706063021 65 0.0 0.0 0.00 0.01 0.00 69 1023.6
20220706062016 65 0.0 0.0 0.00 0.01 0.00 67 1023.6
20220706061016 65 0.0 0.0 0.00 0.01 0.00 68 1023.6
20220706060023 65 0.0 0.0 0.00 0.01 0.00 69 1023.6
20220706055021 65 0.0 0.0 0.00 0.01 0.00 69 1023.5
20220706054021 65 0.0 0.0 0.00 0.01 0.00 70 1023.4
20220706053023 64 0.0 0.0 0.00 0.01 0.00 75 1023.3
20220706052021 63 0.0 0.0 0.00 0.01 0.00 77 1023.2
20220706051016 61 0.0 0.0 0.00 0.01 0.00 80 1023.2
20220706050016 59 0.0 0.0 0.00 0.01 0.00 82 1022.9
20220706045021 58 0.0 0.0 0.00 0.01 0.00 82 1022.9
20220706044021 58 0.0 0.0 0.00 0.01 0.00 81 1022.9
20220706043021 58 0.0 0.0 0.00 0.01 0.00 82 1022.9
20220706042021 58 0.0 0.0 0.00 0.01 0.00 82 1022.9
20220706041021 57 0.0 0.0 0.00 0.01 0.00 82 1022.9
20220706040018 57 0.0 0.0 0.00 0.01 0.00 81 1022.9
20220706035021 57 0.0 0.0 0.00 0.01 0.00 81 1022.9
20220706034021 57 0.0 0.0 0.00 0.01 0.00 81 1022.7
20220706033023 57 0.0 0.0 0.00 0.01 0.00 82 1022.7
20220706032021 57 0.0 0.0 0.00 0.01 0.00 82 1022.7
20220706031019 58 0.0 0.0 0.00 0.01 0.00 82 1022.6
20220706030126 58 0.0 0.0 0.00 0.01 0.00 82 1022.6
20220706025016 58 0.0 0.0 0.00 0.01 0.00 82 1022.4
20220706024023 58 0.0 0.0 0.00 0.01 0.00 82 1022.3
20220706023021 58 0.0 0.0 0.00 0.01 0.00 82 1022.3
20220706022022 59 0.0 0.0 0.00 0.01 0.00 82 1022.3
20220706021022 59 0.0 0.0 0.00 0.01 0.00 83 1022.3